TAY3LP EDDC-EDDK

Flight info

Callsign TAY3LP
Flight time 0h 59m
Altitude 28000
Route ABKIS Z715 UNAVI Z93 KODUK Z12 SULUS L984 ASKIK DCT GULKO
Aircraft B738/M-SDFGIRY/S

Departure

Time 2026-05-05 17:53
Airport Dresden Airport (EDDC)

Arrival

Time 2026-05-05 18:52
Airport Cologne Bonn Airport (EDDK)
Time Latitude Longitude Altitude Speed Heading
2026-05-05 17:00 51.12762 13.76727 750 ft 0 kts 41°
2026-05-05 17:04 51.12761 13.76727 750 ft 0 kts 41°
2026-05-05 17:43 51.12761 13.76726 750 ft 1 kts 41°
2026-05-05 17:43 51.12750 13.76711 751 ft 2 kts 41°
2026-05-05 17:43 51.12738 13.76695 751 ft 2 kts 41°
2026-05-05 17:44 51.12727 13.76679 752 ft 2 kts 41°
2026-05-05 17:44 51.12720 13.76669 752 ft 2 kts 39°
2026-05-05 17:44 51.12706 13.76659 752 ft 2 kts 11°
2026-05-05 17:44 51.12691 13.76658 753 ft 2 kts 348°
2026-05-05 17:45 51.12677 13.76667 754 ft 2 kts 326°
2026-05-05 17:45 51.12670 13.76676 754 ft 0 kts 313°
2026-05-05 17:45 51.12666 13.76684 754 ft 0 kts 310°
2026-05-05 17:49 51.12666 13.76683 754 ft 1 kts 310°
2026-05-05 17:49 51.12686 13.76646 753 ft 10 kts 310°
2026-05-05 17:50 51.12752 13.76523 751 ft 16 kts 311°
2026-05-05 17:50 51.12775 13.76375 750 ft 16 kts 230°
2026-05-05 17:50 51.12681 13.76246 752 ft 20 kts 220°
2026-05-05 17:50 51.12569 13.76090 754 ft 21 kts 222°
2026-05-05 17:51 51.12448 13.75924 755 ft 25 kts 220°
2026-05-05 17:51 51.12372 13.75774 753 ft 14 kts 268°
2026-05-05 17:51 51.12403 13.75627 750 ft 14 kts 298°
2026-05-05 17:51 51.12463 13.75510 747 ft 12 kts 341°
2026-05-05 17:52 51.12536 13.75559 749 ft 11 kts 40°
2026-05-05 17:52 51.12723 13.75817 750 ft 73 kts 40°
2026-05-05 17:52 51.13306 13.76620 732 ft 145 kts 41°
2026-05-05 17:52 51.14137 13.77834 1047 ft 170 kts 43°
2026-05-05 17:53 51.15033 13.79093 1510 ft 176 kts 39°
2026-05-05 17:53 51.15977 13.80377 2029 ft 185 kts 40°
2026-05-05 17:53 51.16978 13.81765 2527 ft 199 kts 40°
2026-05-05 17:53 51.18036 13.83238 3031 ft 204 kts 39°
2026-05-05 17:54 51.19090 13.84707 3550 ft 207 kts 39°
2026-05-05 17:54 51.20177 13.86443 3704 ft 236 kts 56°
2026-05-05 17:54 51.20596 13.88997 4279 ft 251 kts 92°
2026-05-05 17:54 51.20056 13.91753 4806 ft 269 kts 114°
2026-05-05 17:55 51.19002 13.94285 5412 ft 281 kts 135°
2026-05-05 17:55 51.17560 13.96400 6179 ft 286 kts 136°
2026-05-05 17:55 51.16168 13.98639 6925 ft 291 kts 134°
2026-05-05 17:55 51.14749 14.00978 7731 ft 294 kts 135°
2026-05-05 17:56 51.13324 14.03314 8544 ft 297 kts 135°
2026-05-05 17:56 51.11882 14.05672 9371 ft 299 kts 138°
2026-05-05 17:56 51.10288 14.07724 10126 ft 302 kts 150°
2026-05-05 17:56 51.08320 14.09174 10322 ft 323 kts 167°
2026-05-05 17:57 51.06073 14.09674 10655 ft 337 kts 181°
2026-05-05 17:57 51.03698 14.09318 11279 ft 342 kts 196°
2026-05-05 17:57 51.01557 14.07827 12014 ft 343 kts 215°
2026-05-05 17:57 50.99720 14.05425 12845 ft 343 kts 224°
2026-05-05 17:58 50.98010 14.02830 13610 ft 346 kts 225°
2026-05-05 17:58 50.96256 14.00189 14422 ft 348 kts 225°
2026-05-05 17:58 50.94508 13.97562 15192 ft 350 kts 225°
2026-05-05 17:58 50.92768 13.94929 15938 ft 352 kts 226°
2026-05-05 17:59 50.90979 13.92215 16667 ft 354 kts 226°
2026-05-05 17:59 50.89198 13.89514 17358 ft 357 kts 226°
2026-05-05 17:59 50.87448 13.86863 18010 ft 359 kts 227°
2026-05-05 17:59 50.85637 13.84120 18662 ft 362 kts 227°
2026-05-05 18:00 50.83820 13.81370 19283 ft 365 kts 228°
2026-05-05 18:00 50.82000 13.78584 19883 ft 367 kts 230°
2026-05-05 18:00 50.80323 13.75536 20462 ft 366 kts 237°
2026-05-05 18:00 50.78962 13.72178 21029 ft 365 kts 246°
2026-05-05 18:01 50.77961 13.68557 21590 ft 364 kts 252°
2026-05-05 18:01 50.77085 13.64775 22141 ft 366 kts 253°
2026-05-05 18:01 50.76200 13.61049 22644 ft 368 kts 253°
2026-05-05 18:01 50.75282 13.57236 23150 ft 370 kts 253°
2026-05-05 18:02 50.74382 13.53460 23628 ft 373 kts 253°
2026-05-05 18:02 50.73470 13.49618 24094 ft 375 kts 254°
2026-05-05 18:02 50.72551 13.45752 24543 ft 377 kts 254°
2026-05-05 18:02 50.71631 13.41885 24973 ft 379 kts 254°
2026-05-05 18:03 50.70708 13.38006 25385 ft 381 kts 255°
2026-05-05 18:03 50.69778 13.34105 25775 ft 384 kts 254°
2026-05-05 18:03 50.68835 13.30148 26166 ft 386 kts 255°
2026-05-05 18:03 50.67885 13.26170 26552 ft 388 kts 255°
2026-05-05 18:04 50.66929 13.22177 26923 ft 391 kts 255°
2026-05-05 18:04 50.65975 13.18199 27284 ft 393 kts 255°
2026-05-05 18:04 50.64999 13.14135 27669 ft 393 kts 255°
2026-05-05 18:04 50.64034 13.10123 27766 ft 395 kts 255°
2026-05-05 18:05 50.63057 13.06110 27777 ft 396 kts 253°
2026-05-05 18:05 50.61887 13.02173 27778 ft 398 kts 249°
2026-05-05 18:05 50.60580 12.98335 27777 ft 397 kts 248°
2026-05-05 18:05 50.59295 12.94502 27777 ft 395 kts 249°
2026-05-05 18:06 50.58030 12.90639 27777 ft 395 kts 249°
2026-05-05 18:06 50.57200 12.88103 27777 ft 395 kts 249°
2026-05-05 18:06 50.55515 12.82994 27777 ft 396 kts 249°
2026-05-05 18:06 50.54250 12.79163 27777 ft 396 kts 249°
2026-05-05 18:07 50.52988 12.75344 27777 ft 396 kts 249°
2026-05-05 18:07 50.51715 12.71498 27777 ft 396 kts 249°
2026-05-05 18:07 50.50447 12.67673 27779 ft 396 kts 249°
2026-05-05 18:07 50.49163 12.63802 27781 ft 396 kts 249°
2026-05-05 18:08 50.47905 12.60017 27783 ft 396 kts 249°
2026-05-05 18:08 50.46622 12.56160 27784 ft 396 kts 249°
2026-05-05 18:08 50.45332 12.52293 27784 ft 396 kts 249°
2026-05-05 18:08 50.44059 12.48479 27784 ft 396 kts 249°
2026-05-05 18:09 50.42788 12.44675 27781 ft 396 kts 249°
2026-05-05 18:09 50.41508 12.40853 27784 ft 396 kts 249°
2026-05-05 18:09 50.40225 12.37027 27799 ft 396 kts 249°
2026-05-05 18:09 50.38940 12.33201 27808 ft 397 kts 248°
2026-05-05 18:10 50.37652 12.29369 27816 ft 397 kts 248°
2026-05-05 18:10 50.36367 12.25554 27824 ft 397 kts 248°
2026-05-05 18:10 50.35087 12.21764 27831 ft 396 kts 248°
2026-05-05 18:10 50.33691 12.17991 27830 ft 400 kts 243°
2026-05-05 18:11 50.32113 12.14426 27831 ft 402 kts 241°
2026-05-05 18:11 50.30503 12.10864 27831 ft 402 kts 242°
2026-05-05 18:11 50.28910 12.07245 27831 ft 401 kts 242°
2026-05-05 18:11 50.27348 12.03682 27831 ft 401 kts 242°
2026-05-05 18:12 50.25773 12.00052 27830 ft 400 kts 244°
2026-05-05 18:12 50.24314 11.96360 27831 ft 398 kts 245°
2026-05-05 18:12 50.22892 11.92639 27830 ft 398 kts 245°
2026-05-05 18:12 50.21481 11.88957 27830 ft 395 kts 247°
2026-05-05 18:13 50.20300 11.85098 27831 ft 390 kts 254°
2026-05-05 18:13 50.19486 11.81138 27831 ft 386 kts 261°
2026-05-05 18:13 50.19034 11.77044 27830 ft 382 kts 268°
2026-05-05 18:13 50.18973 11.72923 27832 ft 380 kts 274°
2026-05-05 18:14 50.19051 11.68779 27831 ft 380 kts 274°
2026-05-05 18:14 50.19102 11.64654 27831 ft 380 kts 273°
2026-05-05 18:14 50.19136 11.60591 27831 ft 380 kts 273°
2026-05-05 18:14 50.19180 11.56414 27831 ft 380 kts 273°
2026-05-05 18:15 50.19228 11.52308 27831 ft 380 kts 273°
2026-05-05 18:15 50.19274 11.48215 27831 ft 380 kts 273°
2026-05-05 18:15 50.19319 11.44084 27831 ft 380 kts 273°
2026-05-05 18:15 50.19364 11.39959 27831 ft 380 kts 273°
2026-05-05 18:16 50.19408 11.35873 27831 ft 380 kts 273°
2026-05-05 18:16 50.19451 11.31736 27830 ft 380 kts 273°
2026-05-05 18:16 50.19493 11.27646 27831 ft 380 kts 272°
2026-05-05 18:16 50.19533 11.23537 27831 ft 380 kts 272°
2026-05-05 18:17 50.19572 11.19414 27831 ft 380 kts 273°
2026-05-05 18:17 50.19610 11.15282 27831 ft 380 kts 272°
2026-05-05 18:17 50.19647 11.11138 27831 ft 380 kts 272°
2026-05-05 18:17 50.19681 11.07020 27831 ft 380 kts 272°
2026-05-05 18:18 50.19714 11.02924 27831 ft 380 kts 272°
2026-05-05 18:18 50.19576 10.98827 27826 ft 382 kts 265°
2026-05-05 18:18 50.18928 10.94801 27825 ft 388 kts 254°
2026-05-05 18:18 50.17679 10.91013 27824 ft 396 kts 243°
2026-05-05 18:19 50.15952 10.87613 27824 ft 403 kts 235°
2026-05-05 18:19 50.14059 10.84389 27822 ft 403 kts 235°
2026-05-05 18:19 50.12215 10.81170 27823 ft 401 kts 237°
2026-05-05 18:19 50.10633 10.77663 27827 ft 391 kts 246°
2026-05-05 18:20 50.09371 10.73953 27827 ft 389 kts 249°
2026-05-05 18:20 50.08288 10.70119 27825 ft 385 kts 256°
2026-05-05 18:20 50.07759 10.66069 27834 ft 379 kts 268°
2026-05-05 18:20 50.07668 10.61982 27828 ft 379 kts 271°
2026-05-05 18:21 50.07629 10.57920 27826 ft 379 kts 271°
2026-05-05 18:21 50.07569 10.53824 27826 ft 378 kts 271°
2026-05-05 18:21 50.07519 10.49710 27825 ft 378 kts 271°
2026-05-05 18:21 50.07485 10.45677 27826 ft 378 kts 271°
2026-05-05 18:22 50.07455 10.41525 27826 ft 379 kts 271°
2026-05-05 18:22 50.07426 10.37470 27826 ft 379 kts 271°
2026-05-05 18:22 50.07397 10.33376 27826 ft 379 kts 271°
2026-05-05 18:22 50.07371 10.29243 27826 ft 379 kts 271°
2026-05-05 18:23 50.07344 10.25171 27825 ft 379 kts 271°
2026-05-05 18:23 50.07321 10.21086 27826 ft 379 kts 271°
2026-05-05 18:23 50.07307 10.16954 27826 ft 378 kts 271°
2026-05-05 18:23 50.07295 10.12875 27826 ft 378 kts 271°
2026-05-05 18:24 50.07277 10.08810 27826 ft 378 kts 271°
2026-05-05 18:24 50.07247 10.04733 27812 ft 379 kts 271°
2026-05-05 18:24 50.07209 10.00590 27394 ft 383 kts 271°
2026-05-05 18:24 50.07170 9.96466 26891 ft 378 kts 270°
2026-05-05 18:25 50.07135 9.92387 26389 ft 373 kts 270°
2026-05-05 18:25 50.07111 9.89722 26058 ft 371 kts 270°
2026-05-05 18:25 50.07061 9.84419 25395 ft 368 kts 270°
2026-05-05 18:25 50.07022 9.80445 24917 ft 367 kts 270°
2026-05-05 18:26 50.06982 9.76512 24839 ft 362 kts 270°
2026-05-05 18:26 50.06946 9.72611 24827 ft 366 kts 270°
2026-05-05 18:26 50.06908 9.68658 24828 ft 368 kts 270°
2026-05-05 18:26 50.06867 9.64629 24690 ft 371 kts 270°
2026-05-05 18:27 50.06826 9.60673 24410 ft 368 kts 270°
2026-05-05 18:27 50.06792 9.57566 24196 ft 366 kts 270°
2026-05-05 18:27 50.06755 9.54295 23969 ft 364 kts 270°
2026-05-05 18:27 50.06711 9.50399 23833 ft 360 kts 270°
2026-05-05 18:28 50.06619 9.42583 23812 ft 364 kts 270°
2026-05-05 18:28 50.06570 9.38654 23807 ft 364 kts 270°
2026-05-05 18:28 50.06521 9.34709 23804 ft 364 kts 269°
2026-05-05 18:29 50.06469 9.30729 23803 ft 364 kts 269°
2026-05-05 18:29 50.06417 9.26837 23803 ft 364 kts 269°
2026-05-05 18:29 50.06364 9.22909 23803 ft 364 kts 269°
2026-05-05 18:29 50.06308 9.18967 23803 ft 364 kts 269°
2026-05-05 18:30 50.06252 9.15031 23804 ft 364 kts 269°
2026-05-05 18:30 50.06194 9.11072 23804 ft 364 kts 269°
2026-05-05 18:30 50.06135 9.07155 23804 ft 364 kts 269°
2026-05-05 18:30 50.06074 9.03208 23804 ft 364 kts 269°
2026-05-05 18:31 50.06012 8.99312 23803 ft 365 kts 269°
2026-05-05 18:31 50.05944 8.95357 23804 ft 365 kts 269°
2026-05-05 18:31 50.05875 8.91388 23804 ft 366 kts 269°
2026-05-05 18:31 50.05805 8.87415 23804 ft 366 kts 269°
2026-05-05 18:32 50.05734 8.83461 23804 ft 366 kts 269°
2026-05-05 18:32 50.05662 8.79550 23804 ft 366 kts 269°
2026-05-05 18:32 50.05618 8.75570 23800 ft 366 kts 272°
2026-05-05 18:32 50.06134 8.71697 23464 ft 374 kts 291°
2026-05-05 18:33 50.07632 8.68360 22961 ft 382 kts 313°
2026-05-05 18:33 50.09822 8.66001 22483 ft 386 kts 323°
2026-05-05 18:33 50.12089 8.63823 21976 ft 382 kts 321°
2026-05-05 18:33 50.14278 8.61523 21474 ft 379 kts 320°
2026-05-05 18:34 50.16409 8.59230 20979 ft 378 kts 320°
2026-05-05 18:34 50.18586 8.56896 20473 ft 376 kts 320°
2026-05-05 18:34 50.20710 8.54608 19975 ft 374 kts 320°
2026-05-05 18:34 50.22829 8.52306 19476 ft 372 kts 320°
2026-05-05 18:35 50.24936 8.50010 18976 ft 371 kts 320°
2026-05-05 18:35 50.27060 8.47688 18470 ft 369 kts 320°
2026-05-05 18:35 50.29151 8.45398 17970 ft 367 kts 320°
2026-05-05 18:35 50.31213 8.43136 17828 ft 360 kts 320°
2026-05-05 18:36 50.33267 8.40873 17516 ft 369 kts 320°
2026-05-05 18:36 50.35368 8.38555 16998 ft 366 kts 320°
2026-05-05 18:36 50.37444 8.36269 16496 ft 362 kts 321°
2026-05-05 18:36 50.39484 8.34015 15998 ft 359 kts 320°
2026-05-05 18:37 50.41502 8.31781 15501 ft 357 kts 320°
2026-05-05 18:37 50.43526 8.29539 15000 ft 356 kts 320°
2026-05-05 18:37 50.45545 8.27302 14824 ft 349 kts 320°
2026-05-05 18:37 50.47549 8.25075 14799 ft 354 kts 320°
2026-05-05 18:38 50.49514 8.22893 14791 ft 342 kts 320°
2026-05-05 18:38 50.51436 8.20762 14537 ft 333 kts 320°
2026-05-05 18:38 50.53307 8.18675 14266 ft 329 kts 320°
2026-05-05 18:38 50.55159 8.16609 13994 ft 329 kts 320°
2026-05-05 18:39 50.57025 8.14525 13678 ft 329 kts 320°
2026-05-05 18:39 50.58893 8.12439 13352 ft 328 kts 320°
2026-05-05 18:39 50.60742 8.10372 13023 ft 322 kts 321°
2026-05-05 18:39 50.62530 8.08375 12697 ft 313 kts 321°
2026-05-05 18:40 50.64282 8.06413 12371 ft 305 kts 321°
2026-05-05 18:40 50.65984 8.04504 12032 ft 298 kts 321°
2026-05-05 18:40 50.67638 8.02647 11661 ft 293 kts 321°
2026-05-05 18:40 50.69299 8.00782 11282 ft 289 kts 321°
2026-05-05 18:41 50.70913 7.98967 10909 ft 286 kts 321°
2026-05-05 18:41 50.72523 7.97154 10534 ft 284 kts 321°
2026-05-05 18:41 50.74132 7.95342 10159 ft 284 kts 321°
2026-05-05 18:41 50.75747 7.93524 9832 ft 282 kts 321°
2026-05-05 18:42 50.77301 7.91744 9806 ft 279 kts 315°
2026-05-05 18:42 50.78445 7.89313 9802 ft 275 kts 288°
2026-05-05 18:42 50.78661 7.86318 9432 ft 277 kts 258°
2026-05-05 18:42 50.78007 7.83473 8912 ft 278 kts 246°
2026-05-05 18:43 50.77358 7.80617 8410 ft 279 kts 252°
2026-05-05 18:43 50.76825 7.77673 7908 ft 279 kts 253°
2026-05-05 18:43 50.76269 7.74723 7404 ft 279 kts 252°
2026-05-05 18:43 50.75718 7.71794 6904 ft 280 kts 252°
2026-05-05 18:44 50.75176 7.68862 6390 ft 275 kts 252°
2026-05-05 18:44 50.74654 7.66049 5895 ft 265 kts 253°
2026-05-05 18:44 50.74127 7.63294 5392 ft 257 kts 253°
2026-05-05 18:44 50.73597 7.60624 4946 ft 248 kts 252°
2026-05-05 18:45 50.73099 7.58102 4551 ft 240 kts 253°
2026-05-05 18:45 50.72604 7.55644 4151 ft 232 kts 252°
2026-05-05 18:45 50.72105 7.53233 3757 ft 231 kts 253°
2026-05-05 18:45 50.71593 7.50819 3360 ft 233 kts 253°
2026-05-05 18:46 50.71074 7.48412 3018 ft 230 kts 253°
2026-05-05 18:46 50.70565 7.46112 2988 ft 215 kts 253°
2026-05-05 18:46 50.70072 7.43964 2998 ft 197 kts 253°
2026-05-05 18:46 50.69667 7.42042 2988 ft 180 kts 264°
2026-05-05 18:47 50.69871 7.40147 2993 ft 177 kts 302°
2026-05-05 18:47 50.70618 7.38588 2988 ft 178 kts 310°
2026-05-05 18:47 50.71423 7.37116 2991 ft 178 kts 313°
2026-05-05 18:47 50.72282 7.35690 2992 ft 177 kts 316°
2026-05-05 18:48 50.73169 7.34366 2993 ft 178 kts 316°
2026-05-05 18:48 50.74085 7.33030 2992 ft 178 kts 317°
2026-05-05 18:48 50.74992 7.31724 2992 ft 178 kts 317°
2026-05-05 18:48 50.75914 7.30398 2870 ft 180 kts 317°
2026-05-05 18:49 50.76839 7.29070 2640 ft 177 kts 317°
2026-05-05 18:49 50.77689 7.27848 2441 ft 155 kts 317°
2026-05-05 18:49 50.78487 7.26699 2218 ft 156 kts 317°
2026-05-05 18:49 50.79288 7.25547 1999 ft 155 kts 317°
2026-05-05 18:50 50.80088 7.24396 1786 ft 155 kts 317°
2026-05-05 18:50 50.80887 7.23244 1575 ft 155 kts 317°
2026-05-05 18:50 50.81652 7.22142 1366 ft 143 kts 318°
2026-05-05 18:50 50.82385 7.21085 1179 ft 141 kts 318°
2026-05-05 18:51 50.83107 7.20044 992 ft 140 kts 318°
2026-05-05 18:51 50.83830 7.19001 804 ft 140 kts 318°
2026-05-05 18:51 50.84542 7.17974 625 ft 140 kts 318°
2026-05-05 18:51 50.85273 7.16917 404 ft 142 kts 317°
2026-05-05 18:52 50.85948 7.15946 296 ft 107 kts 318°
2026-05-05 18:52 50.86346 7.15370 283 ft 56 kts 317°
2026-05-05 18:52 50.86596 7.15006 275 ft 44 kts 317°
2026-05-05 18:52 50.86769 7.14753 268 ft 27 kts 315°
2026-05-05 18:53 50.86860 7.14530 262 ft 21 kts 289°
2026-05-05 18:53 50.86882 7.14362 259 ft 13 kts 278°
2026-05-05 18:53 50.86896 7.14230 257 ft 10 kts 281°
2026-05-05 18:53 50.86909 7.14130 256 ft 8 kts 282°
2026-05-05 18:54 50.86918 7.14044 255 ft 10 kts 277°
2026-05-05 18:54 50.86959 7.13868 253 ft 20 kts 316°
2026-05-05 18:54 50.87060 7.13721 250 ft 19 kts 317°
2026-05-05 18:54 50.87154 7.13587 247 ft 10 kts 317°
2026-05-05 18:55 50.87209 7.13508 246 ft 10 kts 317°
2026-05-05 18:55 50.87260 7.13434 246 ft 9 kts 317°
2026-05-05 18:55 50.87304 7.13371 246 ft 6 kts 318°
2026-05-05 18:55 50.87313 7.13329 246 ft 3 kts 259°
2026-05-05 18:56 50.87295 7.13291 246 ft 6 kts 226°
2026-05-05 18:56 50.87259 7.13228 245 ft 6 kts 230°
2026-05-05 18:56 50.87254 7.13220 245 ft 0 kts 230°
2026-05-05 18:56 50.87252 7.13215 245 ft 0 kts 230°